| time (UTC) | temp C | wind direction | speed KPH | gust KPH | rain 1hr cm | rain 24hr cm | rain mn cm | humidity % | barometer mb |
| 20260507203249 | 7 | 85 | 0.0 | 0.0 | 0.00 | 0.00 | 0.46 | 80 | 1015.6 |
| 20260507202748 | 8 | 74 | 0.0 | 0.0 | 0.00 | 0.00 | 0.46 | 80 | 1015.5 |
| 20260507202245 | 7 | 74 | 0.0 | 0.0 | 0.00 | 0.00 | 0.46 | 80 | 1015.5 |
| 20260507201744 | 7 | 74 | 0.0 | 0.0 | 0.00 | 0.00 | 0.46 | 81 | 1015.5 |
| 20260507201240 | 7 | 74 | 0.0 | 0.0 | 0.00 | 0.00 | 0.46 | 81 | 1015.4 |
| 20260507200735 | 7 | 74 | 0.0 | 0.0 | 0.00 | 0.00 | 0.46 | 81 | 1015.4 |
| 20260507200246 | 7 | 74 | 0.0 | 0.0 | 0.00 | 0.00 | 0.46 | 82 | 1015.4 |
| 20260507195742 | 8 | 74 | 0.0 | 0.0 | 0.00 | 0.00 | 0.46 | 81 | 1015.2 |
| 20260507195238 | 7 | 73 | 0.0 | 0.0 | 0.00 | 0.00 | 0.46 | 82 | 1015.2 |
| 20260507194734 | 7 | 73 | 0.0 | 0.0 | 0.00 | 0.00 | 0.46 | 82 | 1015.2 |
| 20260507194251 | 7 | 73 | 0.0 | 0.0 | 0.00 | 0.00 | 0.46 | 83 | 1015.2 |
| 20260507193747 | 7 | 73 | 0.0 | 0.0 | 0.00 | 0.00 | 0.46 | 82 | 1015.2 |
| 20260507193243 | 7 | 73 | 0.0 | 0.0 | 0.00 | 0.00 | 0.46 | 82 | 1015.2 |
| 20260507192743 | 7 | 73 | 0.0 | 0.0 | 0.00 | 0.00 | 0.46 | 82 | 1015.1 |
| 20260507192240 | 7 | 74 | 0.0 | 0.0 | 0.00 | 0.00 | 0.46 | 81 | 1015.1 |
| 20260507191739 | 7 | 74 | 0.0 | 0.0 | 0.00 | 0.00 | 0.46 | 82 | 1015.1 |
| 20260507191239 | 7 | 74 | 0.0 | 0.0 | 0.00 | 0.00 | 0.46 | 82 | 1014.9 |
| 20260507190738 | 7 | 74 | 0.0 | 0.0 | 0.00 | 0.00 | 0.46 | 81 | 1014.9 |
| 20260507190234 | 7 | 72 | 0.0 | 0.0 | 0.00 | 0.00 | 0.46 | 81 | 1014.9 |
| 20260507185734 | 7 | 72 | 0.0 | 0.0 | 0.00 | 0.00 | 0.46 | 82 | 1014.6 |
| 20260507185250 | 7 | 72 | 0.0 | 0.0 | 0.00 | 0.00 | 0.46 | 82 | 1014.6 |
| 20260507184746 | 7 | 72 | 0.0 | 0.0 | 0.00 | 0.00 | 0.46 | 83 | 1014.6 |
| 20260507184246 | 8 | 72 | 0.0 | 0.0 | 0.00 | 0.00 | 0.46 | 83 | 1014.6 |
| 20260507183743 | 8 | 72 | 0.0 | 0.0 | 0.00 | 0.00 | 0.46 | 81 | 1014.6 |
| 20260507183243 | 8 | 72 | 0.0 | 0.0 | 0.00 | 0.00 | 0.46 | 80 | 1014.6 |
| 20260507182742 | 8 | 72 | 0.0 | 0.0 | 0.00 | 0.00 | 0.46 | 81 | 1014.5 |
| 20260507182241 | 8 | 72 | 0.0 | 0.0 | 0.00 | 0.00 | 0.46 | 83 | 1014.5 |
| 20260507181741 | 8 | 72 | 0.0 | 0.0 | 0.00 | 0.00 | 0.46 | 81 | 1014.5 |
| 20260507181237 | 8 | 72 | 0.0 | 0.0 | 0.00 | 0.00 | 0.46 | 81 | 1014.6 |
| 20260507180736 | 8 | 72 | 0.0 | 0.0 | 0.00 | 0.00 | 0.46 | 82 | 1014.6 |
| 20260507180232 | 8 | 76 | 0.0 | 0.0 | 0.00 | 0.00 | 0.46 | 85 | 1014.6 |
| 20260507175732 | 7 | 76 | 0.0 | 0.0 | 0.00 | 0.00 | 0.46 | 83 | 1014.6 |
| 20260507175249 | 8 | 76 | 0.0 | 0.0 | 0.00 | 0.00 | 0.46 | 84 | 1014.6 |
| 20260507174745 | 8 | 76 | 0.0 | 0.0 | 0.00 | 0.00 | 0.46 | 86 | 1014.6 |
| 20260507174241 | 7 | 76 | 0.0 | 0.0 | 0.00 | 0.00 | 0.46 | 83 | 1014.4 |
| 20260507173737 | 7 | 76 | 0.0 | 0.0 | 0.00 | 0.00 | 0.46 | 82 | 1014.4 |
| 20260507173238 | 7 | 76 | 0.0 | 0.0 | 0.00 | 0.00 | 0.46 | 84 | 1014.4 |
| 20260507172738 | 7 | 76 | 0.0 | 0.0 | 0.00 | 0.00 | 0.46 | 87 | 1014.4 |
| 20260507172238 | 7 | 76 | 0.0 | 0.0 | 0.00 | 0.00 | 0.46 | 86 | 1014.4 |
| 20260507171734 | 7 | 76 | 0.0 | 0.0 | 0.00 | 0.00 | 0.46 | 85 | 1014.4 |
| 20260507171234 | 7 | 77 | 0.0 | 0.0 | 0.00 | 0.00 | 0.46 | 84 | 1014.6 |
| 20260507170748 | 7 | 77 | 0.0 | 0.0 | 0.00 | 0.00 | 0.46 | 85 | 1014.6 |
| 20260507170246 | 7 | 77 | 0.0 | 0.0 | 0.00 | 0.00 | 0.46 | 85 | 1014.6 |
| 20260507165742 | 7 | 78 | 0.0 | 0.0 | 0.00 | 0.00 | 0.43 | 84 | 1014.5 |
| 20260507165242 | 7 | 76 | 0.0 | 0.0 | 0.00 | 0.00 | 0.36 | 83 | 1014.5 |
| 20260507164742 | 7 | 71 | 0.0 | 0.0 | 0.00 | 0.00 | 0.33 | 83 | 1014.5 |
| 20260507164242 | 7 | 72 | 0.0 | 0.0 | 0.00 | 0.00 | 0.33 | 87 | 1014.5 |
| 20260507163738 | 7 | 79 | 0.0 | 0.0 | 0.00 | 0.00 | 0.33 | 86 | 1014.5 |
| 20260507163234 | 7 | 89 | 0.0 | 0.0 | 0.00 | 0.00 | 0.28 | 87 | 1014.5 |
| 20260507162733 | 7 | 101 | 0.0 | 0.0 | 0.00 | 0.00 | 0.23 | 86 | 1014.3 |
| 20260507162229 | 8 | 86 | 0.0 | 0.0 | 0.00 | 0.00 | 0.20 | 87 | 1014.3 |
| 20260507161749 | 8 | 86 | 0.0 | 0.0 | 0.00 | 0.00 | 0.20 | 86 | 1014.3 |
| 20260507161245 | 8 | 126 | 0.0 | 0.0 | 0.00 | 0.00 | 0.20 | 85 | 1014.1 |
| 20260507160741 | 9 | 106 | 0.0 | 0.0 | 0.00 | 0.00 | 0.20 | 85 | 1014.1 |
| 20260507160236 | 9 | 134 | 0.0 | 0.0 | 0.00 | 0.00 | 0.20 | 80 | 1014.1 |
| 20260507155736 | 9 | 83 | 0.0 | 0.0 | 0.00 | 0.00 | 0.20 | 80 | 1014.0 |
| 20260507155240 | 9 | 110 | 0.0 | 0.0 | 0.00 | 0.00 | 0.20 | 80 | 1014.0 |
| 20260507154736 | 9 | 105 | 0.0 | 0.0 | 0.00 | 0.00 | 0.20 | 80 | 1014.0 |
| 20260507154236 | 9 | 103 | 0.0 | 0.0 | 0.00 | 0.00 | 0.20 | 81 | 1013.9 |
| 20260507153752 | 9 | 103 | 0.0 | 0.0 | 0.00 | 0.00 | 0.20 | 80 | 1013.9 |
| 20260507153247 | 9 | 88 | 0.0 | 0.0 | 0.00 | 0.00 | 0.20 | 80 | 1013.9 |
| 20260507152742 | 9 | 107 | 0.0 | 0.0 | 0.00 | 0.00 | 0.20 | 80 | 1013.8 |
| 20260507152241 | 9 | 100 | 0.0 | 0.0 | 0.00 | 0.00 | 0.20 | 80 | 1013.8 |
| 20260507151741 | 9 | 103 | 0.0 | 0.0 | 0.00 | 0.00 | 0.20 | 80 | 1013.8 |
| 20260507151241 | 10 | 107 | 0.0 | 0.0 | 0.00 | 0.00 | 0.20 | 79 | 1013.6 |
| 20260507150736 | 10 | 117 | 0.0 | 0.0 | 0.00 | 0.00 | 0.20 | 78 | 1013.6 |
| 20260507150253 | 10 | 115 | 0.0 | 0.0 | 0.00 | 0.00 | 0.20 | 76 | 1013.6 |
| 20260507145748 | 10 | 89 | 0.0 | 0.0 | 0.00 | 0.00 | 0.20 | 80 | 1013.8 |
| 20260507145244 | 10 | 105 | 0.0 | 0.0 | 0.00 | 0.00 | 0.20 | 80 | 1013.8 |
| 20260507144744 | 9 | 104 | 0.0 | 0.0 | 0.00 | 0.00 | 0.20 | 81 | 1013.8 |
| 20260507144240 | 9 | 94 | 0.0 | 0.0 | 0.00 | 0.00 | 0.20 | 80 | 1013.9 |
| 20260507143740 | 10 | 96 | 0.0 | 0.0 | 0.00 | 0.00 | 0.20 | 80 | 1013.9 |
| 20260507143236 | 10 | 90 | 0.0 | 0.0 | 0.00 | 0.00 | 0.20 | 81 | 1013.9 |
| 20260507142732 | 9 | 110 | 0.0 | 0.0 | 0.00 | 0.00 | 0.20 | 82 | 1013.6 |
| 20260507142250 | 9 | 99 | 0.0 | 0.0 | 0.00 | 0.00 | 0.20 | 81 | 1013.6 |
| 20260507141746 | 9 | 100 | 0.0 | 0.0 | 0.00 | 0.00 | 0.20 | 81 | 1013.6 |
| 20260507141242 | 10 | 119 | 0.0 | 0.0 | 0.00 | 0.00 | 0.20 | 80 | 1013.7 |
| 20260507140736 | 10 | 88 | 0.0 | 0.0 | 0.00 | 0.00 | 0.20 | 81 | 1013.7 |
| 20260507140236 | 9 | 94 | 0.0 | 0.0 | 0.00 | 0.00 | 0.20 | 78 | 1013.7 |
| 20260507135735 | 9 | 100 | 0.0 | 0.0 | 0.00 | 0.00 | 0.20 | 81 | 1014.0 |
| 20260507135234 | 9 | 117 | 0.0 | 0.0 | 0.00 | 0.00 | 0.20 | 80 | 1014.0 |
| 20260507134749 | 10 | 110 | 0.0 | 0.0 | 0.00 | 0.00 | 0.20 | 81 | 1014.0 |
| 20260507134245 | 9 | 93 | 0.0 | 0.0 | 0.00 | 0.00 | 0.20 | 83 | 1014.1 |
| 20260507133742 | 9 | 127 | 0.0 | 0.0 | 0.00 | 0.00 | 0.20 | 83 | 1014.1 |
| 20260507133242 | 9 | 117 | 0.0 | 0.0 | 0.00 | 0.00 | 0.20 | 83 | 1014.1 |
| 20260507132741 | 9 | 129 | 0.0 | 0.0 | 0.00 | 0.00 | 0.20 | 82 | 1014.1 |
| 20260507132245 | 9 | 125 | 0.0 | 0.0 | 0.00 | 0.00 | 0.20 | 83 | 1014.1 |
| 20260507131744 | 9 | 117 | 0.0 | 0.0 | 0.00 | 0.00 | 0.20 | 81 | 1014.1 |
| 20260507131240 | 9 | 108 | 0.0 | 0.0 | 0.00 | 0.00 | 0.20 | 81 | 1014.0 |
| 20260507130735 | 10 | 105 | 0.0 | 0.0 | 0.00 | 0.00 | 0.20 | 80 | 1014.0 |
| 20260507130250 | 10 | 94 | 0.0 | 0.0 | 0.00 | 0.00 | 0.20 | 80 | 1014.0 |
| 20260507125747 | 10 | 112 | 0.0 | 0.0 | 0.00 | 0.00 | 0.20 | 79 | 1014.1 |
| 20260507125247 | 10 | 119 | 0.0 | 0.0 | 0.00 | 0.00 | 0.20 | 81 | 1014.1 |
| 20260507124746 | 10 | 132 | 0.0 | 0.0 | 0.00 | 0.00 | 0.20 | 81 | 1014.1 |
| 20260507124242 | 9 | 122 | 0.0 | 0.0 | 0.00 | 0.00 | 0.20 | 81 | 1014.0 |
| 20260507123738 | 10 | 113 | 0.0 | 0.0 | 0.00 | 0.00 | 0.20 | 78 | 1014.0 |
| 20260507123234 | 10 | 127 | 0.0 | 0.0 | 0.00 | 0.00 | 0.20 | 76 | 1014.0 |
| 20260507122733 | 10 | 96 | 0.0 | 0.0 | 0.00 | 0.00 | 0.20 | 78 | 1014.1 |
| 20260507122233 | 9 | 115 | 0.0 | 0.0 | 0.00 | 0.00 | 0.20 | 78 | 1014.1 |
| 20260507121752 | 9 | 103 | 0.0 | 0.0 | 0.00 | 0.00 | 0.20 | 75 | 1014.1 |
| 20260507121232 | 8 | 113 | 0.0 | 0.0 | 0.00 | 0.00 | 0.20 | 77 | 1014.1 |
| 20260507120751 | 8 | 107 | 0.0 | 0.0 | 0.00 | 0.00 | 0.20 | 78 | 1014.1 |
| 20260507120245 | 8 | 123 | 0.0 | 0.0 | 0.00 | 0.00 | 0.20 | 82 | 1014.1 |
| 20260507115741 | 9 | 103 | 0.0 | 0.0 | 0.00 | 0.00 | 0.20 | 81 | 1014.0 |
| 20260507115240 | 9 | 124 | 0.0 | 0.0 | 0.00 | 0.00 | 0.20 | 81 | 1014.0 |
| 20260507114736 | 10 | 124 | 0.0 | 0.0 | 0.00 | 0.00 | 0.20 | 80 | 1014.0 |
| 20260507114249 | 10 | 199 | 0.0 | 0.0 | 0.00 | 0.00 | 0.20 | 78 | 1013.9 |
| 20260507113744 | 10 | 238 | 0.0 | 0.0 | 0.00 | 0.00 | 0.20 | 78 | 1013.9 |
| 20260507113240 | 10 | 214 | 0.0 | 0.0 | 0.00 | 0.00 | 0.20 | 76 | 1013.9 |
| 20260507112739 | 10 | 245 | 0.0 | 0.0 | 0.00 | 0.00 | 0.20 | 77 | 1014.0 |
| 20260507112235 | 10 | 270 | 0.0 | 0.0 | 0.00 | 0.00 | 0.20 | 76 | 1014.0 |
| 20260507111751 | 10 | 261 | 0.0 | 0.0 | 0.00 | 0.00 | 0.20 | 77 | 1014.0 |
| 20260507111248 | 10 | 248 | 0.0 | 0.0 | 0.00 | 0.00 | 0.20 | 79 | 1014.1 |
| 20260507110748 | 9 | 245 | 0.0 | 0.0 | 0.00 | 0.00 | 0.20 | 82 | 1014.1 |
| 20260507110247 | 9 | 248 | 0.0 | 0.0 | 0.00 | 0.00 | 0.20 | 83 | 1014.1 |
| 20260507105743 | 9 | 91 | 0.0 | 0.0 | 0.00 | 0.00 | 0.20 | 83 | 1014.1 |
| 20260507105241 | 9 | 68 | 0.0 | 0.0 | 0.00 | 0.00 | 0.20 | 82 | 1014.1 |
| 20260507104737 | 10 | 160 | 0.0 | 0.0 | 0.00 | 0.00 | 0.20 | 84 | 1014.1 |
| 20260507104234 | 9 | 82 | 0.0 | 0.0 | 0.00 | 0.00 | 0.20 | 82 | 1014.0 |
| 20260507103752 | 9 | 94 | 0.0 | 0.0 | 0.00 | 0.00 | 0.20 | 82 | 1014.0 |
| 20260507103244 | 10 | 219 | 0.0 | 0.0 | 0.00 | 0.00 | 0.20 | 77 | 1014.0 |
| 20260507102740 | 10 | 243 | 0.0 | 0.0 | 0.00 | 0.00 | 0.20 | 77 | 1014.0 |
| 20260507102239 | 10 | 255 | 0.0 | 0.0 | 0.00 | 0.00 | 0.20 | 76 | 1014.0 |
| 20260507101736 | 10 | 243 | 0.0 | 0.0 | 0.00 | 0.00 | 0.20 | 76 | 1014.0 |
| 20260507101236 | 10 | 217 | 0.0 | 0.0 | 0.00 | 0.00 | 0.20 | 76 | 1014.0 |
| 20260507100738 | 10 | 255 | 0.0 | 0.0 | 0.00 | 0.00 | 0.20 | 74 | 1014.0 |
| 20260507100234 | 10 | 217 | 0.0 | 0.0 | 0.00 | 0.00 | 0.20 | 79 | 1014.0 |
| 20260507095750 | 10 | 89 | 0.0 | 0.0 | 0.00 | 0.00 | 0.20 | 83 | 1014.0 |
| 20260507095245 | 10 | 96 | 0.0 | 0.0 | 0.00 | 0.00 | 0.20 | 80 | 1014.0 |
| 20260507094741 | 10 | 70 | 0.0 | 0.0 | 0.00 | 0.00 | 0.20 | 81 | 1014.0 |
| 20260507094241 | 10 | 227 | 0.0 | 0.0 | 0.00 | 0.00 | 0.20 | 76 | 1014.1 |
| 20260507093742 | 10 | 225 | 0.0 | 0.0 | 0.00 | 0.00 | 0.20 | 73 | 1014.1 |
| 20260507093238 | 10 | 227 | 0.0 | 0.0 | 0.00 | 0.00 | 0.20 | 80 | 1014.1 |
| 20260507092733 | 9 | 229 | 0.0 | 0.0 | 0.00 | 0.00 | 0.20 | 79 | 1014.1 |
| 20260507092230 | 9 | 237 | 0.0 | 0.0 | 0.00 | 0.00 | 0.20 | 77 | 1014.1 |
| 20260507091748 | 10 | 207 | 0.0 | 0.0 | 0.00 | 0.00 | 0.20 | 78 | 1014.1 |
| 20260507091246 | 9 | 251 | 0.0 | 0.0 | 0.00 | 0.00 | 0.20 | 80 | 1014.3 |
| 20260507090741 | 8 | 285 | 0.0 | 0.0 | 0.00 | 0.00 | 0.20 | 82 | 1014.3 |
| 20260507090237 | 8 | 257 | 0.0 | 0.0 | 0.00 | 0.00 | 0.20 | 84 | 1014.3 |
| 20260507085736 | 8 | 264 | 0.0 | 0.0 | 0.00 | 0.00 | 0.20 | 83 | 1014.3 |
| 20260507085233 | 8 | 243 | 0.0 | 0.0 | 0.00 | 0.00 | 0.20 | 84 | 1014.3 |
| 20260507084752 | 8 | 242 | 0.0 | 0.0 | 0.00 | 0.00 | 0.20 | 83 | 1014.3 |
| 20260507084247 | 8 | 241 | 0.0 | 0.0 | 0.00 | 0.00 | 0.20 | 84 | 1014.2 |
| 20260507083743 | 8 | 257 | 0.0 | 0.0 | 0.00 | 0.00 | 0.20 | 84 | 1014.2 |
| 20260507083239 | 8 | 231 | 0.0 | 0.0 | 0.00 | 0.00 | 0.20 | 86 | 1014.2 |
| 20260507082738 | 7 | 231 | 0.0 | 0.0 | 0.00 | 0.00 | 0.20 | 86 | 1014.1 |
| 20260507082241 | 7 | 229 | 0.0 | 0.0 | 0.00 | 0.00 | 0.20 | 85 | 1014.1 |
| 20260507081741 | 7 | 259 | 0.0 | 0.0 | 0.00 | 0.00 | 0.20 | 87 | 1014.1 |
| 20260507081241 | 7 | 263 | 0.0 | 0.0 | 0.00 | 0.00 | 0.20 | 87 | 1013.9 |
| 20260507080741 | 7 | 263 | 0.0 | 0.0 | 0.00 | 0.00 | 0.20 | 87 | 1013.9 |
| 20260507080241 | 7 | 267 | 0.0 | 0.0 | 0.00 | 0.00 | 0.20 | 85 | 1013.9 |
| 20260507075741 | 7 | 266 | 0.0 | 0.0 | 0.00 | 0.00 | 0.20 | 85 | 1013.7 |
| 20260507075241 | 7 | 262 | 0.0 | 0.0 | 0.00 | 0.00 | 0.20 | 85 | 1013.7 |
| 20260507074741 | 8 | 259 | 0.0 | 0.0 | 0.00 | 0.00 | 0.20 | 88 | 1013.7 |
| 20260507074240 | 8 | 248 | 0.0 | 0.0 | 0.00 | 0.00 | 0.20 | 87 | 1013.8 |
| 20260507073736 | 8 | 75 | 0.0 | 0.0 | 0.00 | 0.00 | 0.20 | 81 | 1013.8 |
| 20260507073232 | 7 | 75 | 0.0 | 0.0 | 0.00 | 0.00 | 0.20 | 87 | 1013.8 |
| 20260507072751 | 7 | 75 | 0.0 | 0.0 | 0.00 | 0.00 | 0.20 | 88 | 1013.8 |
| 20260507072247 | 7 | 75 | 0.0 | 0.0 | 0.00 | 0.00 | 0.20 | 86 | 1013.8 |
| 20260507071743 | 7 | 75 | 0.0 | 0.0 | 0.00 | 0.00 | 0.20 | 88 | 1013.8 |
| 20260507071243 | 7 | 75 | 0.0 | 0.0 | 0.00 | 0.00 | 0.20 | 88 | 1013.5 |
| 20260507070738 | 7 | 75 | 0.0 | 0.0 | 0.00 | 0.00 | 0.20 | 88 | 1013.5 |
| 20260507070235 | 7 | 63 | 0.0 | 0.0 | 0.00 | 0.00 | 0.20 | 88 | 1013.5 |
| 20260507065734 | 7 | 63 | 0.0 | 0.0 | 0.00 | 0.00 | 0.20 | 87 | 1013.4 |
| 20260507065249 | 7 | 61 | 0.0 | 0.0 | 0.00 | 0.00 | 0.20 | 87 | 1013.4 |
| 20260507064745 | 6 | 103 | 0.0 | 0.0 | 0.00 | 0.00 | 0.20 | 91 | 1013.4 |
| 20260507064241 | 6 | 103 | 0.0 | 0.0 | 0.00 | 0.00 | 0.20 | 91 | 1013.4 |
| 20260507063740 | 6 | 102 | 0.0 | 0.0 | 0.00 | 0.00 | 0.20 | 88 | 1013.4 |
| 20260507063240 | 6 | 101 | 0.0 | 0.0 | 0.00 | 0.00 | 0.20 | 87 | 1013.4 |
| 20260507062739 | 6 | 101 | 0.0 | 0.0 | 0.00 | 0.00 | 0.20 | 85 | 1013.4 |
| 20260507062235 | 7 | 101 | 0.0 | 0.0 | 0.00 | 0.00 | 0.20 | 85 | 1013.4 |
| 20260507061751 | 6 | 108 | 0.0 | 0.0 | 0.00 | 0.00 | 0.20 | 90 | 1013.4 |
| 20260507061246 | 6 | 108 | 0.0 | 0.0 | 0.00 | 0.00 | 0.20 | 87 | 1013.3 |
| 20260507060743 | 6 | 108 | 0.0 | 0.0 | 0.00 | 0.00 | 0.20 | 86 | 1013.3 |
| 20260507060243 | 6 | 103 | 0.0 | 0.0 | 0.00 | 0.00 | 0.20 | 87 | 1013.3 |
| 20260507055745 | 6 | 109 | 0.0 | 0.0 | 0.00 | 0.00 | 0.20 | 87 | 1012.4 |
| 20260507055241 | 6 | 113 | 0.0 | 0.0 | 0.00 | 0.00 | 0.20 | 89 | 1012.4 |
| 20260507054741 | 5 | 113 | 0.0 | 0.0 | 0.00 | 0.00 | 0.20 | 93 | 1012.4 |
| 20260507054239 | 5 | 113 | 0.0 | 0.0 | 0.00 | 0.00 | 0.20 | 95 | 1012.3 |
| 20260507053735 | 4 | 113 | 0.0 | 0.0 | 0.00 | 0.00 | 0.20 | 96 | 1012.3 |
| 20260507053234 | 4 | 113 | 0.0 | 0.0 | 0.00 | 0.00 | 0.20 | 96 | 1012.3 |
| 20260507052731 | 3 | 113 | 0.0 | 0.0 | 0.00 | 0.00 | 0.20 | 97 | 1012.1 |
| 20260507052230 | 3 | 113 | 0.0 | 0.0 | 0.00 | 0.00 | 0.20 | 97 | 1012.1 |
| 20260507051730 | 3 | 113 | 0.0 | 0.0 | 0.00 | 0.00 | 0.20 | 96 | 1012.1 |
| 20260507051230 | 3 | 113 | 0.0 | 0.0 | 0.00 | 0.00 | 0.20 | 96 | 1012.0 |
| 20260507050747 | 3 | 107 | 0.0 | 0.0 | 0.00 | 0.00 | 0.20 | 96 | 1012.0 |
| 20260507050243 | 3 | 105 | 0.0 | 0.0 | 0.00 | 0.00 | 0.20 | 96 | 1012.0 |
| 20260507045739 | 3 | 101 | 0.0 | 0.0 | 0.00 | 0.00 | 0.20 | 95 | 1011.9 |
| 20260507045240 | 4 | 108 | 0.0 | 0.0 | 0.00 | 0.00 | 0.20 | 93 | 1011.9 |
| 20260507044743 | 5 | 120 | 0.0 | 0.0 | 0.00 | 0.00 | 0.20 | 92 | 1011.9 |
| 20260507044239 | 5 | 151 | 0.0 | 0.0 | 0.00 | 0.00 | 0.20 | 91 | 1011.9 |
| 20260507043738 | 5 | 153 | 0.0 | 0.0 | 0.00 | 0.00 | 0.20 | 91 | 1011.9 |
| 20260507043234 | 5 | 151 | 0.0 | 0.0 | 0.00 | 0.00 | 0.20 | 92 | 1011.9 |
| 20260507042750 | 4 | 172 | 0.0 | 0.0 | 0.00 | 0.00 | 0.20 | 93 | 1011.9 |
| 20260507042247 | 4 | 172 | 0.0 | 0.0 | 0.00 | 0.00 | 0.20 | 94 | 1011.9 |
| 20260507041746 | 3 | 172 | 0.0 | 0.0 | 0.00 | 0.00 | 0.20 | 95 | 1011.9 |
| 20260507041243 | 3 | 200 | 0.0 | 0.0 | 0.00 | 0.00 | 0.20 | 95 | 1012.6 |
| 20260507040742 | 3 | 200 | 0.0 | 0.0 | 0.00 | 0.00 | 0.20 | 95 | 1012.6 |
| 20260507040237 | 3 | 225 | 0.0 | 0.0 | 0.00 | 0.00 | 0.20 | 95 | 1012.6 |
| 20260507035733 | 3 | 283 | 0.0 | 0.0 | 0.00 | 0.00 | 0.20 | 96 | 1012.8 |
| 20260507035229 | 3 | 283 | 0.0 | 0.0 | 0.00 | 0.00 | 0.20 | 96 | 1012.8 |
| 20260507034749 | 3 | 319 | 0.0 | 0.0 | 0.00 | 0.00 | 0.18 | 96 | 1012.8 |
| 20260507034245 | 3 | 311 | 0.0 | 0.0 | 0.00 | 0.00 | 0.18 | 96 | 1012.8 |
| 20260507033741 | 3 | 257 | 0.0 | 0.0 | 0.00 | 0.00 | 0.15 | 96 | 1012.8 |
| 20260507033241 | 3 | 262 | 0.0 | 0.0 | 0.00 | 0.00 | 0.13 | 96 | 1012.8 |
| 20260507032737 | 4 | 250 | 0.0 | 0.0 | 0.00 | 0.00 | 0.10 | 96 | 1012.8 |
| 20260507032240 | 4 | 224 | 0.0 | 0.0 | 0.00 | 0.00 | 0.10 | 97 | 1012.8 |
| 20260507031740 | 4 | 260 | 0.0 | 0.0 | 0.00 | 0.00 | 0.10 | 97 | 1012.8 |
| 20260507031240 | 4 | 350 | 0.0 | 0.0 | 0.00 | 0.00 | 0.10 | 97 | 1012.8 |
| 20260507030740 | 3 | 252 | 0.0 | 0.0 | 0.00 | 0.00 | 0.10 | 97 | 1012.8 |
| 20260507030240 | 3 | 252 | 0.0 | 0.0 | 0.00 | 0.00 | 0.10 | 97 | 1012.8 |
| 20260507025740 | 4 | 250 | 0.0 | 0.0 | 0.00 | 0.00 | 0.10 | 97 | 1012.8 |
| 20260507025239 | 4 | 238 | 0.0 | 0.0 | 0.00 | 0.00 | 0.10 | 97 | 1012.8 |
| 20260507024738 | 4 | 242 | 0.0 | 0.0 | 0.00 | 0.00 | 0.10 | 97 | 1012.8 |
| 20260507024238 | 4 | 240 | 0.0 | 0.0 | 0.00 | 0.00 | 0.10 | 97 | 1012.8 |
| 20260507023734 | 4 | 250 | 0.0 | 0.0 | 0.00 | 0.00 | 0.10 | 96 | 1012.8 |
| 20260507023234 | 4 | 260 | 0.0 | 0.0 | 0.00 | 0.00 | 0.10 | 97 | 1012.8 |
| 20260507022748 | 5 | 265 | 0.0 | 0.0 | 0.00 | 0.00 | 0.10 | 96 | 1012.5 |
| 20260507022247 | 5 | 281 | 0.0 | 0.0 | 0.00 | 0.00 | 0.10 | 96 | 1012.5 |
| 20260507021746 | 5 | 280 | 0.0 | 0.0 | 0.00 | 0.00 | 0.10 | 96 | 1012.5 |
| 20260507021242 | 5 | 278 | 0.0 | 0.0 | 0.00 | 0.00 | 0.08 | 95 | 1012.3 |
| 20260507020742 | 5 | 203 | 0.0 | 0.0 | 0.00 | 0.00 | 0.05 | 95 | 1012.3 |
| 20260507020240 | 5 | 203 | 0.0 | 0.0 | 0.00 | 0.00 | 0.05 | 94 | 1012.3 |
| 20260507015740 | 5 | 203 | 0.0 | 0.0 | 0.00 | 0.00 | 0.05 | 94 | 1012.1 |
| 20260507015240 | 5 | 202 | 0.0 | 0.0 | 0.00 | 0.00 | 0.03 | 93 | 1012.1 |
| 20260507014736 | 5 | 172 | 0.0 | 0.0 | 0.00 | 0.00 | 0.03 | 91 | 1012.1 |
| 20260507014232 | 5 | 157 | 0.0 | 0.0 | 0.00 | 0.00 | 0.03 | 90 | 1012.0 |
| 20260507013730 | 5 | 120 | 0.0 | 0.0 | 0.00 | 0.00 | 0.03 | 90 | 1012.0 |
| 20260507013230 | 5 | 110 | 0.0 | 0.0 | 0.00 | 0.00 | 0.03 | 92 | 1012.0 |
| 20260507012751 | 5 | 115 | 0.0 | 0.0 | 0.00 | 0.00 | 0.03 | 93 | 1011.9 |
| 20260507012246 | 5 | 102 | 0.0 | 0.0 | 0.00 | 0.00 | 0.03 | 92 | 1011.9 |
| 20260507011742 | 5 | 99 | 0.0 | 0.0 | 0.00 | 0.00 | 0.03 | 91 | 1011.9 |
| 20260507011242 | 5 | 101 | 0.0 | 0.0 | 0.00 | 0.00 | 0.03 | 89 | 1012.1 |
| 20260507010741 | 6 | 128 | 0.0 | 0.0 | 0.00 | 0.00 | 0.03 | 87 | 1012.1 |
| 20260507010237 | 6 | 217 | 0.0 | 0.0 | 0.00 | 0.00 | 0.03 | 88 | 1012.1 |
| 20260507005737 | 5 | 217 | 0.0 | 0.0 | 0.00 | 0.00 | 0.03 | 89 | 1012.2 |
| 20260507005236 | 5 | 217 | 0.0 | 0.0 | 0.00 | 0.00 | 0.03 | 91 | 1012.2 |
| 20260507004736 | 5 | 217 | 0.0 | 0.0 | 0.00 | 0.00 | 0.00 | 91 | 1012.2 |
| 20260507004236 | 5 | 217 | 0.0 | 0.0 | 0.00 | 0.00 | 0.00 | 91 | 1012.2 |
| 20260507003752 | 5 | 217 | 0.0 | 0.0 | 0.00 | 0.00 | 0.00 | 91 | 1012.2 |
| 20260506233241 | 5 | 217 | 0.0 | 0.0 | 0.00 | 0.00 | 0.00 | 94 | 1012.6 |
| 20260506232737 | 5 | 217 | 0.0 | 0.0 | 0.00 | 0.00 | 0.00 | 95 | 1012.4 |
| 20260506232234 | 5 | 217 | 0.0 | 0.0 | 0.00 | 0.00 | 0.00 | 94 | 1012.4 |
| 20260506231734 | 5 | 217 | 0.0 | 0.0 | 0.00 | 0.00 | 0.00 | 94 | 1012.4 |
| 20260506231248 | 5 | 217 | 0.0 | 0.0 | 0.00 | 0.00 | 0.00 | 93 | 1012.2 |
| 20260506230745 | 5 | 220 | 0.0 | 0.0 | 0.00 | 0.00 | 0.00 | 92 | 1012.2 |
| 20260506230241 | 5 | 111 | 0.0 | 0.0 | 0.00 | 0.00 | 0.00 | 92 | 1012.2 |
| 20260506225740 | 5 | 101 | 0.0 | 0.0 | 0.00 | 0.00 | 0.00 | 94 | 1012.2 |
| 20260506225237 | 4 | 100 | 0.0 | 0.0 | 0.00 | 0.00 | 0.00 | 94 | 1012.2 |
| 20260506224741 | 5 | 108 | 0.0 | 0.0 | 0.00 | 0.00 | 0.00 | 92 | 1012.2 |
| 20260506224241 | 5 | 203 | 0.0 | 0.0 | 0.00 | 0.00 | 0.00 | 91 | 1012.2 |
| 20260506223740 | 5 | 205 | 0.0 | 0.0 | 0.00 | 0.00 | 0.00 | 90 | 1012.2 |
| 20260506223237 | 5 | 115 | 0.0 | 0.0 | 0.00 | 0.00 | 0.00 | 90 | 1012.2 |
| 20260506222753 | 5 | 110 | 0.0 | 0.0 | 0.00 | 0.00 | 0.00 | 92 | 1012.3 |
| 20260506222249 | 5 | 101 | 0.0 | 0.0 | 0.00 | 0.00 | 0.00 | 93 | 1012.3 |
| 20260506221747 | 5 | 103 | 0.0 | 0.0 | 0.00 | 0.00 | 0.00 | 93 | 1012.3 |
| 20260506221247 | 5 | 103 | 0.0 | 0.0 | 0.00 | 0.00 | 0.00 | 92 | 1012.3 |
| 20260506220746 | 5 | 133 | 0.0 | 0.0 | 0.00 | 0.00 | 0.00 | 92 | 1012.3 |
| 20260506220242 | 5 | 98 | 0.0 | 0.0 | 0.00 | 0.00 | 0.00 | 92 | 1012.3 |
| 20260506215738 | 5 | 94 | 0.0 | 0.0 | 0.00 | 0.00 | 2.46 | 93 | 1012.3 |
| 20260506215235 | 5 | 94 | 0.0 | 0.0 | 0.00 | 0.00 | 2.46 | 93 | 1012.3 |
| 20260506214749 | 5 | 94 | 0.0 | 0.0 | 0.00 | 0.00 | 2.46 | 93 | 1012.3 |
| 20260506214245 | 5 | 94 | 0.0 | 0.0 | 0.00 | 0.00 | 2.46 | 92 | 1012.4 |
| 20260506213740 | 5 | 94 | 0.0 | 0.0 | 0.00 | 0.00 | 2.46 | 92 | 1012.4 |
| 20260506213241 | 5 | 94 | 0.0 | 0.0 | 0.00 | 0.00 | 2.46 | 92 | 1012.4 |
| 20260506212741 | 5 | 101 | 0.0 | 0.0 | 0.00 | 0.00 | 2.44 | 93 | 1011.6 |
| 20260506212241 | 5 | 120 | 0.0 | 0.0 | 0.00 | 0.00 | 2.41 | 96 | 1011.6 |
| 20260506211741 | 5 | 229 | 0.0 | 0.0 | 0.00 | 0.00 | 2.41 | 96 | 1011.6 |
| 20260506211241 | 5 | 229 | 0.0 | 0.0 | 0.00 | 0.00 | 2.41 | 97 | 1011.5 |
| 20260506210741 | 4 | 229 | 0.0 | 0.0 | 0.00 | 0.00 | 2.41 | 97 | 1011.5 |
| 20260506210240 | 4 | 229 | 0.0 | 0.0 | 0.00 | 0.00 | 2.41 | 97 | 1011.5 |
| 20260506205737 | 4 | 229 | 0.0 | 0.0 | 0.00 | 0.00 | 2.41 | 97 | 1011.6 |
| 20260506205237 | 4 | 229 | 0.0 | 0.0 | 0.00 | 0.00 | 2.41 | 97 | 1011.6 |
| 20260506204736 | 4 | 229 | 0.0 | 0.0 | 0.00 | 0.00 | 2.41 | 97 | 1011.6 |
| 20260506204252 | 4 | 229 | 0.0 | 0.0 | 0.00 | 0.00 | 2.41 | 98 | 1011.9 |
| 20260506203748 | 4 | 229 | 0.0 | 0.0 | 0.00 | 0.00 | 2.41 | 98 | 1011.9 |